Simultaneous Nadir Overpasses (SNOs) Predictions

Prediction of SNOs between FY3D and TERRA Satellite Orbit:

Table of predicted SNOs for the next 14.0 days since TLE Epoch: 10/5/2024
Index Date (FY3D) Time (FY3D) Lat,Lon (FY3D) SZA (FY3D ) Date (TERRA) Time (TERRA) Lat,Lon (TERRA) SZA (TERRA ) Distance(km) Time Diff (sec)
1 10/05/2024 18:47:16 76.35,-101.62 81.43 10/05/2024 18:47:52 76.36,-101.57 81.45 2.16 36
2 10/05/2024 19:38:00 -76.31, 65.85 98.60 10/05/2024 19:37:16 -76.28, 65.82 98.63 3.31 44
3 10/08/2024 05:59:56 76.37, 90.18 82.40 10/08/2024 06:00:30 76.37, 90.26 82.40 2.10 34
4 10/08/2024 06:50:40 -76.33,-102.34 97.63 10/08/2024 06:49:53 -76.34,-102.19 97.62 4.06 47
5 10/10/2024 17:12:35 76.38, -77.96 83.35 10/10/2024 17:13:06 76.35, -77.99 83.32 3.34 31
6 10/10/2024 18:03:19 -76.33, 89.53 96.69 10/10/2024 18:02:29 -76.32, 89.56 96.71 1.96 50
7 10/13/2024 04:25:13 76.38, 113.94 84.28 10/13/2024 04:25:38 76.40, 113.99 84.30 2.65 25
8 10/13/2024 05:15:57 -76.33, -78.56 95.76 10/13/2024 05:15:02 -76.32, -78.62 95.78 1.96 55
9 10/15/2024 15:37:51 76.41, -54.28 85.22 10/15/2024 15:38:08 76.42, -54.12 85.23 4.25 17
10 10/15/2024 16:28:35 -76.36, 113.23 94.82 10/15/2024 16:27:32 -76.33, 113.27 94.85 2.57 63
11 10/18/2024 02:50:27 76.38, 137.73 86.10 10/18/2024 02:50:36 76.41, 137.69 86.12 3.12 9



Historial Predications of SNOs between FY3D and TERRA
